Simultaneous Nadir Overpasses (SNOs) Predictions

Prediction of SNOs between GOES-17 and METOP-C Satellite Orbit:

Table of predicted SNOs for the next 14.0 days since TLE Epoch: 4/25/2025
Index Date Time (GOES-17) GOES-17 Lat,Lon METOP-C Lat,Lon Distance(km) Time Diff (sec)
1 04/26/2025 16:29:52 0.01,-104.40 0.02,-104.49 10.37 80
2 04/29/2025 04:25:36 -0.02,-104.35 0.05,-104.10 28.36 80
3 04/30/2025 16:47:10 0.02,-104.40 0.95,-108.67 486.57 80
4 05/01/2025 16:23:52 0.01,-104.39 -0.14,-103.67 81.86 80
5 05/03/2025 04:45:33 -0.01,-104.34 -0.91,-108.27 448.17 80
6 05/04/2025 04:22:15 -0.01,-104.34 0.25,-103.29 120.56 80
7 05/05/2025 16:43:49 0.01,-104.40 0.80,-107.84 393.52 80
8 05/06/2025 16:20:30 0.01,-104.40 -0.30,-102.85 175.69 80
9 05/08/2025 04:42:12 -0.02,-104.35 -0.73,-107.45 353.19 80
10 05/09/2025 04:18:53 -0.02,-104.36 0.38,-102.45 216.12 80
